TimeEST,TemperatureF,Dew PointF,Humidity,Sea Level PressureIn,VisibilityMPH,Wind Direction,Wind SpeedMPH,Gust SpeedMPH,PrecipitationIn,Events,Conditions,WindDirDegrees,DateUTC
12:54 AM,19.9,16.0,85,30.34,10.0,SSE,5.8,-,N/A,,Clear,150,2012-12-06 05:54:00
1:54 AM,21.9,19.0,89,30.33,10.0,Calm,Calm,-,N/A,,Clear,0,2012-12-06 06:54:00
2:54 AM,23.0,19.9,88,30.33,10.0,SSE,4.6,-,N/A,,Clear,150,2012-12-06 07:54:00
3:54 AM,24.1,21.0,88,30.32,10.0,SSE,5.8,-,N/A,,Clear,150,2012-12-06 08:54:00
4:54 AM,26.1,21.9,84,30.28,10.0,SE,9.2,-,N/A,,Clear,140,2012-12-06 09:54:00
5:54 AM,26.1,21.9,84,30.27,10.0,SSE,6.9,-,N/A,,Clear,150,2012-12-06 10:54:00
6:54 AM,24.1,21.0,88,30.26,10.0,SSE,4.6,-,N/A,,Clear,160,2012-12-06 11:54:00
7:54 AM,26.1,23.0,88,30.23,10.0,SSE,8.1,-,N/A,,Clear,160,2012-12-06 12:54:00
8:00 AM,26.6,23.0,86,30.19,10.0,SSE,8.1,-,N/A,,Overcast,160,2012-12-06 13:00:00
8:54 AM,28.9,25.0,85,30.21,10.0,South,9.2,-,N/A,,Mostly Cloudy,170,2012-12-06 13:54:00
9:54 AM,30.9,25.0,79,30.19,10.0,South,13.8,-,N/A,,Overcast,180,2012-12-06 14:54:00
10:15 AM,30.2,26.6,86,30.14,10.0,South,16.1,23.0,N/A,,Overcast,180,2012-12-06 15:15:00
10:54 AM,32.0,26.1,79,30.16,10.0,South,18.4,21.9,N/A,,Overcast,180,2012-12-06 15:54:00
11:01 AM,32.0,26.6,80,30.11,10.0,South,13.8,21.9,N/A,,Overcast,180,2012-12-06 16:01:00
11:54 AM,33.1,26.1,75,30.11,10.0,South,13.8,-,N/A,,Overcast,190,2012-12-06 16:54:00
12:54 PM,34.0,26.1,73,30.07,10.0,South,11.5,25.3,N/A,,Overcast,180,2012-12-06 17:54:00
1:54 PM,34.0,25.0,70,30.04,10.0,South,13.8,-,N/A,,Overcast,190,2012-12-06 18:54:00
2:54 PM,34.0,24.1,67,30.01,10.0,South,13.8,-,N/A,,Overcast,180,2012-12-06 19:54:00
3:54 PM,34.0,25.0,70,30.00,10.0,South,10.4,-,N/A,,Overcast,190,2012-12-06 20:54:00
4:54 PM,34.0,25.0,70,29.99,10.0,SSW,6.9,-,N/A,,Overcast,200,2012-12-06 21:54:00
5:54 PM,33.1,25.0,72,29.96,10.0,SSE,11.5,-,N/A,,Overcast,160,2012-12-06 22:54:00
6:54 PM,34.0,26.1,73,29.98,10.0,SSW,11.5,-,N/A,,Overcast,200,2012-12-06 23:54:00
7:54 PM,35.1,26.1,70,29.93,10.0,South,15.0,-,N/A,,Overcast,190,2012-12-07 00:54:00
8:54 PM,35.1,26.1,70,29.92,10.0,South,12.7,19.6,N/A,,Overcast,190,2012-12-07 01:54:00
9:54 PM,35.1,26.1,70,29.90,10.0,SSW,6.9,-,N/A,,Scattered Clouds,200,2012-12-07 02:54:00
10:54 PM,36.0,26.1,67,29.89,10.0,SSW,8.1,-,N/A,,Mostly Cloudy,210,2012-12-07 03:54:00
11:54 PM,36.0,27.0,70,29.89,10.0,SW,9.2,-,N/A,,Overcast,220,2012-12-07 04:54:00